| time (UTC) | temp F | wind direction | speed MPH | gust MPH | rain 1hr in | rain 24hr in | rain mn in | humidity % | barometer mb |
| 20260510083504 | 82 | 288 | 12.0 | 21.0 | 0.00 | 0.00 | 0.00 | 31 | 1004.7 |
| 20260510083003 | 82 | 303 | 12.0 | 22.0 | 0.00 | 0.00 | 0.00 | 31 | 1004.9 |
| 20260510082503 | 82 | 286 | 13.0 | 22.0 | 0.00 | 0.00 | 0.00 | 32 | 1004.9 |
| 20260510082004 | 82 | 297 | 12.0 | 21.0 | 0.00 | 0.00 | 0.00 | 32 | 1004.9 |
| 20260510081003 | 82 | 299 | 14.0 | 24.0 | 0.00 | 0.00 | 0.00 | 33 | 1004.9 |
| 20260510080504 | 82 | 285 | 12.0 | 22.0 | 0.00 | 0.00 | 0.00 | 33 | 1005.0 |
| 20260510080004 | 82 | 295 | 9.0 | 18.0 | 0.00 | 0.00 | 0.00 | 32 | 1004.9 |
| 20260510075003 | 82 | 300 | 13.0 | 25.0 | 0.00 | 0.00 | 0.00 | 32 | 1004.9 |
| 20260510074003 | 82 | 299 | 11.0 | 21.0 | 0.00 | 0.00 | 0.00 | 33 | 1005.0 |
| 20260510073503 | 82 | 298 | 12.0 | 23.0 | 0.00 | 0.00 | 0.00 | 32 | 1005.0 |
| 20260510073004 | 82 | 299 | 12.0 | 24.0 | 0.00 | 0.00 | 0.00 | 33 | 1004.9 |
| 20260510072503 | 82 | 296 | 10.0 | 21.0 | 0.00 | 0.00 | 0.00 | 33 | 1004.9 |
| 20260510072003 | 82 | 309 | 12.0 | 23.0 | 0.00 | 0.00 | 0.00 | 33 | 1004.9 |
| 20260510071503 | 82 | 314 | 12.0 | 22.0 | 0.00 | 0.00 | 0.00 | 33 | 1004.8 |
| 20260510071003 | 82 | 287 | 13.0 | 24.0 | 0.00 | 0.00 | 0.00 | 33 | 1004.8 |
| 20260510070503 | 82 | 304 | 13.0 | 23.0 | 0.00 | 0.00 | 0.00 | 32 | 1004.8 |
| 20260510070003 | 82 | 303 | 10.0 | 23.0 | 0.00 | 0.00 | 0.00 | 32 | 1004.8 |
| 20260510065003 | 83 | 294 | 13.0 | 24.0 | 0.00 | 0.00 | 0.00 | 32 | 1004.7 |
| 20260510064503 | 83 | 300 | 13.0 | 22.0 | 0.00 | 0.00 | 0.00 | 32 | 1004.8 |
| 20260510064004 | 83 | 293 | 13.0 | 22.0 | 0.00 | 0.00 | 0.00 | 32 | 1004.7 |
| 20260510063503 | 83 | 283 | 12.0 | 24.0 | 0.00 | 0.00 | 0.00 | 32 | 1004.7 |
| 20260510062503 | 83 | 291 | 12.0 | 21.0 | 0.00 | 0.00 | 0.00 | 31 | 1004.7 |
| 20260510062003 | 83 | 295 | 14.0 | 24.0 | 0.00 | 0.00 | 0.00 | 32 | 1004.7 |
| 20260510061504 | 83 | 290 | 12.0 | 21.0 | 0.00 | 0.00 | 0.00 | 31 | 1004.6 |
| 20260510061004 | 83 | 309 | 10.0 | 20.0 | 0.00 | 0.00 | 0.00 | 31 | 1004.7 |
| 20260510060504 | 83 | 288 | 11.0 | 20.0 | 0.00 | 0.00 | 0.00 | 31 | 1004.7 |
| 20260510060004 | 83 | 301 | 11.0 | 21.0 | 0.00 | 0.00 | 0.00 | 31 | 1004.7 |
| 20260510055503 | 83 | 289 | 13.0 | 26.0 | 0.00 | 0.00 | 0.00 | 31 | 1004.7 |
| 20260510054503 | 83 | 298 | 11.0 | 23.0 | 0.00 | 0.00 | 0.00 | 32 | 1004.6 |
| 20260510054003 | 83 | 307 | 10.0 | 21.0 | 0.00 | 0.00 | 0.00 | 33 | 1004.6 |
| 20260510053503 | 83 | 303 | 11.0 | 20.0 | 0.00 | 0.00 | 0.00 | 33 | 1004.6 |
| 20260510053004 | 83 | 300 | 12.0 | 23.0 | 0.00 | 0.00 | 0.00 | 33 | 1004.7 |
| 20260510052503 | 83 | 293 | 13.0 | 20.0 | 0.00 | 0.00 | 0.00 | 33 | 1004.6 |
| 20260510052003 | 83 | 295 | 10.0 | 20.0 | 0.00 | 0.00 | 0.00 | 33 | 1004.6 |
| 20260510051503 | 84 | 304 | 11.0 | 25.0 | 0.00 | 0.00 | 0.00 | 33 | 1004.6 |
| 20260510050503 | 84 | 299 | 12.0 | 21.0 | 0.00 | 0.00 | 0.00 | 32 | 1004.4 |
| 20260510050003 | 84 | 316 | 11.0 | 26.0 | 0.00 | 0.00 | 0.00 | 32 | 1004.4 |
| 20260510045503 | 84 | 299 | 12.0 | 25.0 | 0.00 | 0.00 | 0.00 | 32 | 1004.4 |
| 20260510045004 | 84 | 286 | 13.0 | 23.0 | 0.00 | 0.00 | 0.00 | 32 | 1004.4 |
| 20260510044503 | 85 | 300 | 10.0 | 17.0 | 0.00 | 0.00 | 0.00 | 32 | 1004.4 |
| 20260510044003 | 85 | 307 | 8.0 | 16.0 | 0.00 | 0.00 | 0.00 | 32 | 1004.4 |
| 20260510043503 | 85 | 306 | 7.0 | 21.0 | 0.00 | 0.00 | 0.00 | 31 | 1004.3 |
| 20260510043003 | 85 | 305 | 7.0 | 15.0 | 0.00 | 0.00 | 0.00 | 32 | 1004.3 |
| 20260510042503 | 85 | 313 | 6.0 | 12.0 | 0.00 | 0.00 | 0.00 | 31 | 1004.2 |
| 20260510041503 | 86 | 305 | 6.0 | 13.0 | 0.00 | 0.00 | 0.00 | 31 | 1004.2 |
| 20260510041003 | 86 | 308 | 7.0 | 17.0 | 0.00 | 0.00 | 0.00 | 31 | 1004.1 |
| 20260510040003 | 86 | 292 | 9.0 | 20.0 | 0.00 | 0.00 | 0.00 | 31 | 1004.0 |
| 20260510035003 | 87 | 304 | 8.0 | 14.0 | 0.00 | 0.00 | 0.00 | 31 | 1003.9 |
| 20260510034503 | 87 | 318 | 5.0 | 10.0 | 0.00 | 0.00 | 0.00 | 31 | 1003.8 |
| 20260510034003 | 88 | 302 | 9.0 | 18.0 | 0.00 | 0.00 | 0.00 | 30 | 1003.7 |
| 20260510033503 | 88 | 294 | 9.0 | 18.0 | 0.00 | 0.00 | 0.00 | 30 | 1003.7 |
| 20260510033004 | 88 | 312 | 10.0 | 20.0 | 0.00 | 0.00 | 0.00 | 30 | 1003.6 |
| 20260510032504 | 89 | 288 | 11.0 | 18.0 | 0.00 | 0.00 | 0.00 | 30 | 1003.3 |
| 20260510032004 | 89 | 288 | 10.0 | 23.0 | 0.00 | 0.00 | 0.00 | 30 | 1003.3 |
| 20260510031503 | 89 | 294 | 10.0 | 18.0 | 0.00 | 0.00 | 0.00 | 30 | 1003.3 |
| 20260510031003 | 89 | 308 | 10.0 | 21.0 | 0.00 | 0.00 | 0.00 | 30 | 1003.3 |
| 20260510030503 | 90 | 309 | 9.0 | 17.0 | 0.00 | 0.00 | 0.00 | 29 | 1003.2 |
| 20260510030004 | 90 | 292 | 10.0 | 22.0 | 0.00 | 0.00 | 0.00 | 29 | 1003.2 |
| 20260510025503 | 91 | 304 | 11.0 | 20.0 | 0.00 | 0.00 | 0.00 | 28 | 1003.2 |
| 20260510025003 | 91 | 280 | 11.0 | 21.0 | 0.00 | 0.00 | 0.00 | 27 | 1003.1 |
| 20260510024503 | 92 | 284 | 9.0 | 17.0 | 0.00 | 0.00 | 0.00 | 27 | 1003.1 |
| 20260510024003 | 92 | 284 | 13.0 | 20.0 | 0.00 | 0.00 | 0.00 | 26 | 1003.0 |
| 20260510023504 | 92 | 306 | 9.0 | 17.0 | 0.00 | 0.00 | 0.00 | 26 | 1002.9 |
| 20260510023003 | 93 | 303 | 12.0 | 21.0 | 0.00 | 0.00 | 0.00 | 25 | 1002.8 |
| 20260510022504 | 93 | 292 | 10.0 | 17.0 | 0.00 | 0.00 | 0.00 | 24 | 1002.8 |
| 20260510022004 | 94 | 288 | 11.0 | 20.0 | 0.00 | 0.00 | 0.00 | 24 | 1002.7 |
| 20260510021503 | 94 | 300 | 10.0 | 20.0 | 0.00 | 0.00 | 0.00 | 24 | 1002.7 |
| 20260510021003 | 95 | 292 | 9.0 | 18.0 | 0.00 | 0.00 | 0.00 | 23 | 1002.7 |
| 20260510020004 | 96 | 285 | 9.0 | 17.0 | 0.00 | 0.00 | 0.00 | 22 | 1002.7 |
| 20260510015504 | 96 | 291 | 10.0 | 21.0 | 0.00 | 0.00 | 0.00 | 21 | 1002.6 |
| 20260510015004 | 96 | 290 | 9.0 | 20.0 | 0.00 | 0.00 | 0.00 | 21 | 1002.6 |
| 20260510014503 | 97 | 293 | 12.0 | 20.0 | 0.00 | 0.00 | 0.00 | 21 | 1002.6 |
| 20260510013503 | 97 | 292 | 12.0 | 17.0 | 0.00 | 0.00 | 0.00 | 20 | 1002.6 |
| 20260510013004 | 98 | 301 | 10.0 | 20.0 | 0.00 | 0.00 | 0.00 | 19 | 1002.6 |
| 20260510012504 | 98 | 305 | 9.0 | 16.0 | 0.00 | 0.00 | 0.00 | 19 | 1002.6 |
| 20260510012003 | 98 | 299 | 10.0 | 20.0 | 0.00 | 0.00 | 0.00 | 19 | 1002.6 |
| 20260510011504 | 99 | 283 | 9.0 | 20.0 | 0.00 | 0.00 | 0.00 | 18 | 1002.6 |
| 20260510011003 | 99 | 284 | 10.0 | 18.0 | 0.00 | 0.00 | 0.00 | 18 | 1002.6 |
| 20260510010003 | 100 | 290 | 10.0 | 21.0 | 0.00 | 0.00 | 0.00 | 17 | 1002.6 |
| 20260510005504 | 100 | 294 | 10.0 | 17.0 | 0.00 | 0.00 | 0.00 | 18 | 1002.6 |
| 20260510005004 | 100 | 298 | 12.0 | 21.0 | 0.00 | 0.00 | 0.00 | 17 | 1002.5 |
| 20260510004503 | 100 | 286 | 9.0 | 20.0 | 0.00 | 0.00 | 0.00 | 17 | 1002.5 |
| 20260510004004 | 101 | 292 | 10.0 | 20.0 | 0.00 | 0.00 | 0.00 | 18 | 1002.5 |
| 20260510003504 | 101 | 294 | 9.0 | 20.0 | 0.00 | 0.00 | 0.00 | 17 | 1002.5 |
| 20260510003004 | 101 | 279 | 7.0 | 17.0 | 0.00 | 0.00 | 0.00 | 18 | 1002.5 |
| 20260510002503 | 101 | 296 | 9.0 | 20.0 | 0.00 | 0.00 | 0.00 | 18 | 1002.5 |
| 20260510002003 | 101 | 312 | 6.0 | 20.0 | 0.00 | 0.00 | 0.00 | 17 | 1002.6 |
| 20260510001504 | 101 | 300 | 10.0 | 16.0 | 0.00 | 0.00 | 0.00 | 17 | 1002.6 |
| 20260510001004 | 102 | 283 | 9.0 | 15.0 | 0.00 | 0.00 | 0.00 | 16 | 1002.6 |
| 20260510000504 | 102 | 280 | 9.0 | 20.0 | 0.00 | 0.00 | 0.00 | 15 | 1002.6 |
| 20260510000004 | 102 | 294 | 7.0 | 18.0 | 0.00 | 0.00 | 0.00 | 16 | 1002.5 |
| 20260509235003 | 102 | 279 | 6.0 | 17.0 | 0.00 | 0.00 | 0.00 | 15 | 1002.6 |
| 20260509234504 | 102 | 261 | 8.0 | 14.0 | 0.00 | 0.00 | 0.00 | 16 | 1002.6 |
| 20260509234003 | 102 | 280 | 9.0 | 14.0 | 0.00 | 0.00 | 0.00 | 15 | 1002.7 |
| 20260509233503 | 102 | 305 | 9.0 | 16.0 | 0.00 | 0.00 | 0.00 | 16 | 1002.7 |
| 20260509233004 | 102 | 262 | 6.0 | 15.0 | 0.00 | 0.00 | 0.00 | 14 | 1002.8 |
| 20260509232004 | 103 | 302 | 5.0 | 16.0 | 0.00 | 0.00 | 0.00 | 15 | 1003.1 |
| 20260509231503 | 104 | 262 | 9.0 | 15.0 | 0.00 | 0.00 | 0.00 | 13 | 1003.2 |
| 20260509231003 | 104 | 303 | 5.0 | 13.0 | 0.00 | 0.00 | 0.00 | 13 | 1003.2 |
| 20260509230004 | 103 | 292 | 7.0 | 14.0 | 0.00 | 0.00 | 0.00 | 13 | 1003.3 |
| 20260509225503 | 104 | 276 | 6.0 | 10.0 | 0.00 | 0.00 | 0.00 | 13 | 1003.4 |
| 20260509224503 | 104 | 244 | 7.0 | 13.0 | 0.00 | 0.00 | 0.00 | 12 | 1003.4 |
| 20260509223504 | 104 | 307 | 3.0 | 9.0 | 0.00 | 0.00 | 0.00 | 13 | 1003.6 |
| 20260509223003 | 104 | 288 | 6.0 | 12.0 | 0.00 | 0.00 | 0.00 | 13 | 1003.6 |
| 20260509222504 | 104 | 338 | 4.0 | 10.0 | 0.00 | 0.00 | 0.00 | 14 | 1003.7 |
| 20260509222004 | 104 | 291 | 4.0 | 12.0 | 0.00 | 0.00 | 0.00 | 14 | 1003.7 |
| 20260509221503 | 104 | 287 | 6.0 | 12.0 | 0.00 | 0.00 | 0.00 | 14 | 1003.7 |
| 20260509221004 | 104 | 297 | 3.0 | 6.0 | 0.00 | 0.00 | 0.00 | 14 | 1003.8 |
| 20260509220503 | 104 | 214 | 5.0 | 10.0 | 0.00 | 0.00 | 0.00 | 13 | 1003.9 |
| 20260509220003 | 104 | 241 | 6.0 | 10.0 | 0.00 | 0.00 | 0.00 | 13 | 1003.9 |
| 20260509215004 | 103 | 202 | 3.0 | 6.0 | 0.00 | 0.00 | 0.00 | 11 | 1004.1 |
| 20260509214503 | 103 | 161 | 5.0 | 7.0 | 0.00 | 0.00 | 0.00 | 12 | 1004.2 |
| 20260509214004 | 103 | 196 | 5.0 | 8.0 | 0.00 | 0.00 | 0.00 | 12 | 1004.2 |
| 20260509213504 | 103 | 152 | 1.0 | 3.0 | 0.00 | 0.00 | 0.00 | 11 | 1004.3 |
| 20260509213003 | 102 | 169 | 2.0 | 3.0 | 0.00 | 0.00 | 0.00 | 12 | 1004.3 |
| 20260509212503 | 102 | 136 | 1.0 | 3.0 | 0.00 | 0.00 | 0.00 | 11 | 1004.5 |
| 20260509212004 | 102 | 189 | 3.0 | 7.0 | 0.00 | 0.00 | 0.00 | 12 | 1004.7 |
| 20260509211503 | 102 | 181 | 4.0 | 6.0 | 0.00 | 0.00 | 0.00 | 12 | 1004.8 |
| 20260509211003 | 102 | 243 | 5.0 | 7.0 | 0.00 | 0.00 | 0.00 | 11 | 1004.8 |
| 20260509210504 | 102 | 263 | 3.0 | 6.0 | 0.00 | 0.00 | 0.00 | 12 | 1004.8 |
| 20260509210003 | 102 | 212 | 5.0 | 7.0 | 0.00 | 0.00 | 0.00 | 10 | 1004.9 |
| 20260509205504 | 101 | 70 | 1.0 | 10.0 | 0.00 | 0.00 | 0.00 | 11 | 1005.1 |
| 20260509205003 | 102 | 88 | 5.0 | 10.0 | 0.00 | 0.00 | 0.00 | 10 | 1005.2 |
| 20260509204503 | 102 | 142 | 3.0 | 8.0 | 0.00 | 0.00 | 0.00 | 11 | 1005.1 |
| 20260509204005 | 102 | 126 | 4.0 | 7.0 | 0.00 | 0.00 | 0.00 | 11 | 1005.2 |
| 20260509203503 | 102 | 118 | 3.0 | 5.0 | 0.00 | 0.00 | 0.00 | 12 | 1005.3 |
| 20260509203003 | 101 | 196 | 2.0 | 3.0 | 0.00 | 0.00 | 0.00 | 12 | 1005.3 |
| 20260509202504 | 100 | 43 | 2.0 | 3.0 | 0.00 | 0.00 | 0.00 | 13 | 1005.3 |
| 20260509202003 | 100 | 216 | 2.0 | 3.0 | 0.00 | 0.00 | 0.00 | 11 | 1005.3 |
| 20260509201504 | 100 | 203 | 1.0 | 3.0 | 0.00 | 0.00 | 0.00 | 12 | 1005.4 |
| 20260509201003 | 100 | 278 | 4.0 | 7.0 | 0.00 | 0.00 | 0.00 | 14 | 1005.6 |
| 20260509200503 | 100 | 215 | 1.0 | 3.0 | 0.00 | 0.00 | 0.00 | 14 | 1005.8 |
| 20260509200004 | 100 | 80 | 1.0 | 5.0 | 0.00 | 0.00 | 0.00 | 14 | 1005.8 |
| 20260509195504 | 98 | 79 | 2.0 | 3.0 | 0.00 | 0.00 | 0.00 | 13 | 1005.8 |
| 20260509195003 | 99 | 230 | 2.0 | 7.0 | 0.00 | 0.00 | 0.00 | 13 | 1005.8 |
| 20260509194504 | 99 | 233 | 5.0 | 7.0 | 0.00 | 0.00 | 0.00 | 12 | 1005.8 |
| 20260509194003 | 99 | 236 | 2.0 | 7.0 | 0.00 | 0.00 | 0.00 | 14 | 1005.8 |
| 20260509193503 | 99 | 150 | 4.0 | 8.0 | 0.00 | 0.00 | 0.00 | 13 | 1005.9 |
| 20260509193003 | 99 | 145 | 3.0 | 8.0 | 0.00 | 0.00 | 0.00 | 16 | 1005.9 |
| 20260509192503 | 98 | 190 | 2.0 | 7.0 | 0.00 | 0.00 | 0.00 | 13 | 1005.9 |
| 20260509192004 | 98 | 265 | 1.0 | 5.0 | 0.00 | 0.00 | 0.00 | 15 | 1006.3 |
| 20260509191503 | 97 | 5 | 2.0 | 3.0 | 0.00 | 0.00 | 0.00 | 14 | 1006.3 |
| 20260509191003 | 97 | 246 | 4.0 | 7.0 | 0.00 | 0.00 | 0.00 | 14 | 1006.3 |
| 20260509190503 | 98 | 201 | 5.0 | 8.0 | 0.00 | 0.00 | 0.00 | 14 | 1006.3 |
| 20260509190004 | 97 | 221 | 5.0 | 8.0 | 0.00 | 0.00 | 0.00 | 13 | 1006.3 |
| 20260509185004 | 97 | 188 | 2.0 | 5.0 | 0.00 | 0.00 | 0.00 | 16 | 1006.4 |
| 20260509184504 | 96 | 221 | 3.0 | 7.0 | 0.00 | 0.00 | 0.00 | 14 | 1006.5 |
| 20260509184003 | 96 | 227 | 3.0 | 6.0 | 0.00 | 0.00 | 0.00 | 14 | 1006.5 |
| 20260509183504 | 96 | 201 | 4.0 | 7.0 | 0.00 | 0.00 | 0.00 | 16 | 1006.5 |
| 20260509183003 | 95 | 161 | 2.0 | 5.0 | 0.00 | 0.00 | 0.00 | 16 | 1006.5 |
| 20260509182503 | 95 | 129 | 1.0 | 5.0 | 0.00 | 0.00 | 0.00 | 18 | 1006.6 |
| 20260509182003 | 95 | 107 | 2.0 | 6.0 | 0.00 | 0.00 | 0.00 | 16 | 1006.8 |
| 20260509181504 | 95 | 205 | 4.0 | 7.0 | 0.00 | 0.00 | 0.00 | 17 | 1006.8 |
| 20260509181003 | 95 | 203 | 1.0 | 5.0 | 0.00 | 0.00 | 0.00 | 17 | 1006.8 |
| 20260509180503 | 95 | 179 | 3.0 | 5.0 | 0.00 | 0.00 | 0.00 | 19 | 1006.8 |
| 20260509175504 | 93 | 147 | 2.0 | 7.0 | 0.00 | 0.00 | 0.00 | 19 | 1006.8 |
| 20260509175003 | 93 | 232 | 2.0 | 7.0 | 0.00 | 0.00 | 0.00 | 18 | 1006.8 |
| 20260509174503 | 93 | 213 | 2.0 | 6.0 | 0.00 | 0.00 | 0.00 | 19 | 1006.8 |
| 20260509174004 | 94 | 225 | 2.0 | 6.0 | 0.00 | 0.00 | 0.00 | 20 | 1006.8 |
| 20260509173503 | 93 | 235 | 5.0 | 7.0 | 0.00 | 0.00 | 0.00 | 20 | 1006.8 |
| 20260509173003 | 93 | 221 | 2.0 | 9.0 | 0.00 | 0.00 | 0.00 | 22 | 1006.8 |
| 20260509172503 | 92 | 202 | 3.0 | 8.0 | 0.00 | 0.00 | 0.00 | 20 | 1006.8 |
| 20260509172004 | 91 | 201 | 4.0 | 7.0 | 0.00 | 0.00 | 0.00 | 21 | 1006.8 |
| 20260509171504 | 92 | 214 | 3.0 | 7.0 | 0.00 | 0.00 | 0.00 | 20 | 1006.9 |
| 20260509171004 | 92 | 205 | 3.0 | 6.0 | 0.00 | 0.00 | 0.00 | 20 | 1006.9 |
| 20260509170503 | 92 | 225 | 4.0 | 7.0 | 0.00 | 0.00 | 0.00 | 20 | 1006.9 |
| 20260509170004 | 91 | 210 | 5.0 | 7.0 | 0.00 | 0.00 | 0.00 | 20 | 1006.9 |
| 20260509165503 | 91 | 208 | 5.0 | 10.0 | 0.00 | 0.00 | 0.00 | 22 | 1006.8 |
| 20260509165004 | 91 | 215 | 4.0 | 7.0 | 0.00 | 0.00 | 0.00 | 23 | 1006.8 |
| 20260509164504 | 90 | 228 | 5.0 | 8.0 | 0.00 | 0.00 | 0.00 | 24 | 1006.8 |
| 20260509164004 | 90 | 237 | 3.0 | 8.0 | 0.00 | 0.00 | 0.00 | 25 | 1006.9 |
| 20260509163003 | 89 | 219 | 5.0 | 9.0 | 0.00 | 0.00 | 0.00 | 24 | 1006.8 |
| 20260509162503 | 89 | 213 | 3.0 | 7.0 | 0.00 | 0.00 | 0.00 | 25 | 1006.8 |
| 20260509161504 | 88 | 218 | 4.0 | 6.0 | 0.00 | 0.00 | 0.00 | 27 | 1006.8 |
| 20260509161003 | 87 | 220 | 4.0 | 6.0 | 0.00 | 0.00 | 0.00 | 28 | 1006.8 |
| 20260509160504 | 87 | 223 | 3.0 | 8.0 | 0.00 | 0.00 | 0.00 | 28 | 1006.8 |
| 20260509160003 | 87 | 224 | 5.0 | 9.0 | 0.00 | 0.00 | 0.00 | 28 | 1006.9 |
| 20260509155504 | 87 | 234 | 5.0 | 9.0 | 0.00 | 0.00 | 0.00 | 27 | 1006.8 |
| 20260509155004 | 86 | 226 | 5.0 | 6.0 | 0.00 | 0.00 | 0.00 | 29 | 1006.8 |
| 20260509154504 | 86 | 205 | 3.0 | 6.0 | 0.00 | 0.00 | 0.00 | 31 | 1006.8 |
| 20260509154004 | 86 | 203 | 4.0 | 7.0 | 0.00 | 0.00 | 0.00 | 28 | 1006.7 |
| 20260509153503 | 86 | 262 | 6.0 | 13.0 | 0.00 | 0.00 | 0.00 | 26 | 1006.6 |
| 20260509153004 | 86 | 278 | 8.0 | 12.0 | 0.00 | 0.00 | 0.00 | 27 | 1006.8 |
| 20260509152504 | 85 | 296 | 9.0 | 17.0 | 0.00 | 0.00 | 0.00 | 27 | 1006.8 |
| 20260509152003 | 85 | 274 | 6.0 | 14.0 | 0.00 | 0.00 | 0.00 | 28 | 1006.6 |
| 20260509151003 | 84 | 284 | 9.0 | 15.0 | 0.00 | 0.00 | 0.00 | 30 | 1006.6 |
| 20260509150503 | 84 | 300 | 9.0 | 17.0 | 0.00 | 0.00 | 0.00 | 30 | 1006.6 |
| 20260509150004 | 83 | 285 | 10.0 | 16.0 | 0.00 | 0.00 | 0.00 | 31 | 1006.6 |
| 20260509145003 | 82 | 287 | 10.0 | 18.0 | 0.00 | 0.00 | 0.00 | 33 | 1006.5 |
| 20260509144503 | 82 | 303 | 10.0 | 18.0 | 0.00 | 0.00 | 0.00 | 33 | 1006.4 |
| 20260509144003 | 82 | 293 | 12.0 | 20.0 | 0.00 | 0.00 | 0.00 | 34 | 1006.4 |
| 20260509143003 | 81 | 275 | 12.0 | 20.0 | 0.00 | 0.00 | 0.00 | 35 | 1006.4 |
| 20260509142503 | 81 | 294 | 13.0 | 21.0 | 0.00 | 0.00 | 0.00 | 35 | 1006.3 |
| 20260509142004 | 80 | 296 | 12.0 | 20.0 | 0.00 | 0.00 | 0.00 | 36 | 1006.3 |
| 20260509141504 | 80 | 281 | 9.0 | 20.0 | 0.00 | 0.00 | 0.00 | 36 | 1006.3 |
| 20260509141003 | 80 | 282 | 11.0 | 16.0 | 0.00 | 0.00 | 0.00 | 37 | 1006.2 |
| 20260509140503 | 80 | 280 | 12.0 | 18.0 | 0.00 | 0.00 | 0.00 | 37 | 1006.2 |
| 20260509140005 | 79 | 291 | 10.0 | 20.0 | 0.00 | 0.00 | 0.00 | 37 | 1006.1 |
| 20260509135504 | 79 | 291 | 10.0 | 17.0 | 0.00 | 0.00 | 0.00 | 38 | 1006.1 |
| 20260509135003 | 79 | 280 | 11.0 | 20.0 | 0.00 | 0.00 | 0.00 | 38 | 1006.0 |
| 20260509134504 | 79 | 291 | 10.0 | 18.0 | 0.00 | 0.00 | 0.00 | 38 | 1005.9 |
| 20260509134004 | 79 | 286 | 13.0 | 22.0 | 0.00 | 0.00 | 0.00 | 38 | 1005.9 |
| 20260509133503 | 79 | 288 | 14.0 | 24.0 | 0.00 | 0.00 | 0.00 | 39 | 1005.8 |
| 20260509133003 | 79 | 282 | 13.0 | 21.0 | 0.00 | 0.00 | 0.00 | 39 | 1005.8 |
| 20260509132504 | 79 | 274 | 15.0 | 24.0 | 0.00 | 0.00 | 0.00 | 38 | 1005.8 |
| 20260509132003 | 78 | 279 | 14.0 | 26.0 | 0.00 | 0.00 | 0.00 | 39 | 1005.7 |
| 20260509130503 | 79 | 286 | 12.0 | 22.0 | 0.00 | 0.00 | 0.00 | 38 | 1005.6 |
| 20260509130004 | 79 | 283 | 14.0 | 23.0 | 0.00 | 0.00 | 0.00 | 38 | 1005.4 |
| 20260509125503 | 79 | 288 | 13.0 | 20.0 | 0.00 | 0.00 | 0.00 | 38 | 1005.4 |
| 20260509125004 | 79 | 279 | 14.0 | 24.0 | 0.00 | 0.00 | 0.00 | 38 | 1005.4 |
| 20260509124504 | 79 | 279 | 14.0 | 23.0 | 0.00 | 0.00 | 0.00 | 37 | 1005.3 |
| 20260509124003 | 79 | 276 | 14.0 | 26.0 | 0.00 | 0.00 | 0.00 | 37 | 1005.3 |
| 20260509123503 | 79 | 299 | 13.0 | 23.0 | 0.00 | 0.00 | 0.00 | 37 | 1005.3 |
| 20260509123004 | 79 | 290 | 15.0 | 23.0 | 0.00 | 0.00 | 0.00 | 37 | 1005.3 |
| 20260509122004 | 79 | 294 | 12.0 | 20.0 | 0.00 | 0.00 | 0.00 | 36 | 1005.3 |
| 20260509121504 | 79 | 294 | 16.0 | 24.0 | 0.00 | 0.00 | 0.00 | 36 | 1005.2 |
| 20260509121004 | 79 | 290 | 16.0 | 25.0 | 0.00 | 0.00 | 0.00 | 36 | 1005.1 |
| 20260509120503 | 79 | 278 | 14.0 | 23.0 | 0.00 | 0.00 | 0.00 | 36 | 1005.1 |
| 20260509115503 | 79 | 287 | 14.0 | 29.0 | 0.00 | 0.00 | 0.00 | 37 | 1005.1 |
| 20260509115005 | 79 | 293 | 13.0 | 21.0 | 0.00 | 0.00 | 0.00 | 36 | 1005.2 |
| 20260509114004 | 79 | 303 | 16.0 | 24.0 | 0.00 | 0.00 | 0.00 | 36 | 1005.2 |
| 20260509113004 | 79 | 274 | 16.0 | 25.0 | 0.00 | 0.00 | 0.00 | 37 | 1005.2 |
| 20260509112503 | 80 | 292 | 14.0 | 24.0 | 0.00 | 0.00 | 0.00 | 37 | 1005.3 |
| 20260509112003 | 80 | 289 | 17.0 | 25.0 | 0.00 | 0.00 | 0.00 | 36 | 1005.2 |
| 20260509111503 | 80 | 281 | 18.0 | 29.0 | 0.00 | 0.00 | 0.00 | 36 | 1005.2 |
| 20260509111004 | 80 | 289 | 17.0 | 29.0 | 0.00 | 0.00 | 0.00 | 37 | 1005.3 |
| 20260509110503 | 80 | 289 | 14.0 | 26.0 | 0.00 | 0.00 | 0.00 | 36 | 1005.3 |
| 20260509110004 | 80 | 284 | 15.0 | 26.0 | 0.00 | 0.00 | 0.00 | 37 | 1005.2 |
| 20260509105503 | 80 | 303 | 17.0 | 26.0 | 0.00 | 0.00 | 0.00 | 38 | 1005.2 |
| 20260509105003 | 79 | 282 | 14.0 | 25.0 | 0.00 | 0.00 | 0.00 | 38 | 1005.3 |
| 20260509104504 | 79 | 297 | 14.0 | 26.0 | 0.00 | 0.00 | 0.00 | 38 | 1005.3 |
| 20260509104003 | 79 | 291 | 16.0 | 26.0 | 0.00 | 0.00 | 0.00 | 39 | 1005.3 |
| 20260509103503 | 79 | 288 | 16.0 | 24.0 | 0.00 | 0.00 | 0.00 | 39 | 1005.3 |
| 20260509103003 | 79 | 297 | 17.0 | 25.0 | 0.00 | 0.00 | 0.00 | 39 | 1005.3 |
| 20260509102004 | 80 | 289 | 13.0 | 26.0 | 0.00 | 0.00 | 0.00 | 39 | 1005.3 |
| 20260509101504 | 80 | 296 | 14.0 | 26.0 | 0.00 | 0.00 | 0.00 | 38 | 1005.3 |
| 20260509101003 | 80 | 283 | 14.0 | 26.0 | 0.00 | 0.00 | 0.00 | 38 | 1005.3 |
| 20260509100503 | 80 | 296 | 13.0 | 25.0 | 0.00 | 0.00 | 0.00 | 38 | 1005.3 |
| 20260509100004 | 80 | 292 | 16.0 | 26.0 | 0.00 | 0.00 | 0.00 | 38 | 1005.3 |
| 20260509095504 | 80 | 279 | 16.0 | 25.0 | 0.00 | 0.00 | 0.00 | 38 | 1005.2 |
| 20260509095004 | 80 | 289 | 16.0 | 25.0 | 0.00 | 0.00 | 0.00 | 38 | 1005.3 |
| 20260509094504 | 80 | 293 | 16.0 | 28.0 | 0.00 | 0.00 | 0.00 | 38 | 1005.3 |
| 20260509093503 | 80 | 271 | 15.0 | 29.0 | 0.00 | 0.00 | 0.00 | 38 | 1005.5 |
| 20260509093003 | 81 | 306 | 17.0 | 30.0 | 0.00 | 0.00 | 0.00 | 38 | 1005.4 |
| 20260509092503 | 80 | 295 | 14.0 | 26.0 | 0.00 | 0.00 | 0.00 | 38 | 1005.3 |
| 20260509092003 | 80 | 288 | 16.0 | 29.0 | 0.00 | 0.00 | 0.00 | 38 | 1005.4 |
| 20260509091503 | 80 | 296 | 15.0 | 25.0 | 0.00 | 0.00 | 0.00 | 38 | 1005.4 |
| 20260509091003 | 80 | 294 | 11.0 | 24.0 | 0.00 | 0.00 | 0.00 | 38 | 1005.4 |
| 20260509090503 | 80 | 286 | 12.0 | 24.0 | 0.00 | 0.00 | 0.00 | 38 | 1005.5 |
| 20260509085003 | 79 | 296 | 14.0 | 26.0 | 0.00 | 0.00 | 0.00 | 41 | 1005.5 |